Regional Weather Roundup
Issued by NWS

Home | Current Version | Previous Version | Text Only | Print | Product List | Glossary Off
Versions: 1 2 3 4 5 6 7 8 9 10 11 12 13 14 15 16 17 18 19 20 21 22 23 24 25 26 27 28 29

000
ASUS45 KCYS 281110
RWRWY

WYOMING REGIONAL WEATHER ROUNDUP
NATIONAL WEATHER SERVICE CHEYENNE WY
500 AM MDT THU APR 28 2016

NOTE:  "FAIR" INDICATES FEW OR NO CLOUDS BELOW 12,000 FEET
WITH NO SIGNIFICANT WEATHER AND/OR OBSTRUCTIONS TO VISIBILITY.

WYZ001-281200-
YELLOWSTONE NATIONAL PARK

CITY           SKY/WX    TMP DP  RH WIND       PRES   REMARKS
LK YELLOWSTONE   N/A     28  21  75 VRB3      29.88S
W YELLOWSTONE  NOT AVBL

$$
WYZ002>013-054>058-071-098>099-281200-
NORTHERN WYOMING

CITY           SKY/WX    TMP DP  RH WIND       PRES   REMARKS
JACKSON        CLOUDY    36  28  75 N10       29.83S WCI  28
CODY           CLOUDY    30  28  93 N7        29.96S WCI  23
GREYBULL       CLOUDY    35  30  82 NW9       29.96R WCI  28
WORLAND        CLOUDY    34  31  88 NW6       29.97R WCI  29
SHERIDAN       LGT SNOW  32  31  96 NE6       30.01R FOG     WCI  26
BUFFALO        CLOUDY    30  28  92 N7        29.98R WCI  23
GILLETTE       CLOUDY    30  29  96 N7        29.98R WCI  23
HULETT         LGT SNOW  32  32 100 N3        29.98S
NEWCASTLE      CLOUDY    32  27  80 N8        29.95S WCI  25

$$
WYZ014>020-022>026-101>103-281200-
CENTRAL WYOMING

CITY           SKY/WX    TMP DP  RH WIND       PRES   REMARKS
BIG PINEY      CLOUDY    32  28  85 SW7       29.86S WCI  26
PINEDALE       CLOUDY    32  30  93 W5        29.85F WCI  27
DUBOIS         LGT SNOW  28  27  93 SE13      29.87S WCI  18
LANDER         CLOUDY    33  31  92 SE3       29.91S FOG
RIVERTON       CLOUDY    33  29  85 NE12      29.92S WCI  24
CASPER         FLURRIES  31  27  85 NE5       29.95R WCI  26
DOUGLAS        CLOUDY    32  29  88 NW8       29.96R WCI  25

$$
WYZ021-027>030-104>119-281200-
SOUTHERN WYOMING

CITY           SKY/WX    TMP DP  RH WIND       PRES   REMARKS
EVANSTON       CLOUDY    32  26  78 NE23G30   29.75S WCI  19
FORT BRIDGER   CLOUDY    32  32 100 E14       29.83R WCI  22
ROCK SPRINGS   CLOUDY    31  26  82 E20       29.84S WCI  19
DIXON          FAIR      32  27  79 NE8       29.83F WCI  25
RAWLINS        FAIR      25  21  85 NE6       29.88F WCI  18
SARATOGA       CLOUDY    30  28  93 W8        29.87F WCI  23
LARAMIE        CLOUDY    27  23  85 NE5       29.88F WCI  22
CHEYENNE       CLOUDY    30  26  85 N3        29.91S
TORRINGTON     MOCLDY    29  26  89 N9        29.93S WCI  20
PINE BLUFFS    CLOUDY    32  30  93 NW3       29.94R

$$




USA.gov is the U.S. government's official web portal to all federal, state and local government web resources and services.